This demonstration page uses our WeatherBlox Daily Observations layout. Learn more.

Left ArrowRight Arrow

39.29038, -76.61219

Hourly Observations for November 28, 2018

Temp ( °F °C ) Dew Point ( °F °C ) Humidity (%) Winds ( mph kmh ) Pressure ( in mb ) Visibility ( mi km ) Precip ( " mm )
12:54 am 00:54 undefined 36 2.2 19 -7.2 50 50 undefined N/A 29.63 1003 N/A 0.00 0.00
1:54 am 01:54 undefined 36 2.2 19 -7.2 50 50 undefined N/A 29.63 1003 N/A 0.00 0.00
2:54 am 02:54 undefined 36 2.2 19 -7.2 50 50 undefined N/A 29.65 1004 N/A 0.00 0.00
3:54 am 03:54 undefined 36 2.2 19 -7.2 50 50 undefined N/A 29.65 1004 N/A 0.00 0.00
4:54 am 04:54 undefined 36 2.2 18 -7.8 48 48 undefined N/A 29.66 1004 N/A 0.00 0.00
5:54 am 05:54 undefined 35 1.7 19 -7.2 52 52 undefined N/A 29.69 1005 N/A 0.00 0.00
6:54 am 06:54 undefined 35 1.7 18 -7.8 50 50 undefined N/A 29.69 1006 N/A 0.00 0.00
7:54 am 07:54 undefined 35 1.7 16 -8.9 46 46 undefined N/A 29.72 1007 N/A 0.00 0.00
8:54 am 08:54 undefined 36 2.2 15 -9.4 42 42 undefined N/A 29.76 1008 N/A 0.00 0.00
9:54 am 09:54 undefined 36 2.2 16 -8.9 44 44 undefined N/A 29.78 1009 N/A 0.00 0.00
10:54 am 10:54 undefined 37 2.8 15 -9.4 41 41 undefined N/A 29.78 1009 N/A 0.00 0.00
11:54 am 11:54 undefined 39 3.9 16 -8.9 39 39 undefined N/A 29.78 1008 N/A 0.00 0.00
12:54 pm 12:54 undefined 39 3.9 16 -8.9 39 39 undefined N/A 29.76 1008 N/A 0.00 0.00
1:54 pm 13:54 undefined 38 3.3 16 -8.9 41 41 undefined N/A 29.77 1008 N/A 0.00 0.00
2:54 pm 14:54 undefined 38 3.3 17 -8.3 43 43 undefined N/A 29.78 1008 N/A 0.00 0.00
3:54 pm 15:54 undefined 37 2.8 17 -8.3 44 44 undefined N/A 29.82 1010 N/A 0.00 0.00
4:54 pm 16:54 undefined 36 2.2 17 -8.3 46 46 undefined N/A 29.84 1010 N/A 0.00 0.00
5:54 pm 17:54 undefined 35 1.7 17 -8.3 48 48 undefined N/A 29.88 1012 N/A 0.00 0.00
6:54 pm 18:54 undefined 35 1.7 17 -8.3 48 48 undefined N/A 29.90 1012 N/A 0.00 0.00
7:54 pm 19:54 undefined 34 1.1 17 -8.3 50 50 undefined N/A 29.91 1013 N/A 0.00 0.00
8:54 pm 20:54 undefined 34 1.1 17 -8.3 50 50 undefined N/A 29.93 1014 N/A 0.00 0.00
9:54 pm 21:54 undefined 34 1.1 17 -8.3 50 50 undefined N/A 29.93 1014 N/A 0.00 0.00
10:54 pm 22:54 undefined 34 1.1 18 -7.8 52 52 undefined N/A 29.96 1015 N/A 0.00 0.00
11:54 pm 23:54 undefined 33 0.6 18 -7.8 54 54 undefined N/A 29.96 1014 N/A 0.00 0.00

Powered by AerisWeather